Regional Weather Roundup
Issued by NWS Wakefield, VA

Home | Current Version | Previous Version | Graphics & Text | Print | Product List | Glossary On
Versions: 1 2 3 4 5 6 7 8 9 10 11 12 13 14 15 16 17 18 19 20 21 22 23 24 25 26 27 28 29 30 31 32 33 34 35 36 37 38 39 40 41 42 43 44 45 46 47 48 49 50
682
ASUS41 KAKQ 271615
RWRAKQ

REGIONAL WEATHER ROUNDUP
NATIONAL WEATHER SERVICE WAKEFIELD VA
1200 PM EDT WED JUL 27 2016

Note: "fair" indicates few or no clouds below 12,000 feet with no
significant weather and/or obstructions to visibility. * = Denotes
station may not report precipitation (e.g., rain,snow,etc.),
thunder or fog.

VAZ042-051-052>054-056-271700-
NORTHERN VIRGINIA

CITY           SKY/WX    TMP DP  RH WIND       PRES   REMARKS
WASH NATIONAL  PTSUNNY   91  67  44 NW7       29.97R
DULLES         FAIR      88  65  46 NW8       29.98F
FORT BELVOIR   FAIR      91  65  41 VRB3      29.96S
QUANTICO       PTSUNNY   90  70  51 N6        29.97S HX  95
FREDERICKSBRG*   N/A     91  69  46 CALM      29.95F HX  96
STAFFORD*      CLOUDY    90  67  46 N6        30.01S
WARRENTON      FAIR      91  59  34 N6        29.98S
CULPEPER*      FAIR      89  71  55 N3        29.99S
MANASSAS*      PTSUNNY   90  63  40 N5        29.97F
LEESBURG*      FAIR      88  70  55 W7        29.99F
WINCHESTER     PTSUNNY   84  61  45 N3        30.01S
FRONT ROYAL*   FAIR      86  66  51 CALM      30.00F
LURAY*         PTSUNNY   82  72  69 CALM      30.01F
$$

VAZ048-049-060>072-079>083-271700-
CENTRAL AND SOUTH CENTRAL VIRGINIA

CITY           SKY/WX    TMP DP  RH WIND       PRES   REMARKS
RICHMOND       FAIR      86  74  67 VRB3      29.96S
CHESTERFIELD*  FAIR      88  66  48 CALM      29.98S
PETERSBURG*    FAIR      89  76  64 CALM      29.98S HX 100
HANOVER        FAIR      89  73  59 W5        29.98S HX  97
TAPPAHANNOCK*  FAIR      91  71  51 N3        29.97S HX  98
QUINTON*       FAIR      86  76  72 CALM      29.96S HX  95
CHARLOTTSVILLE FAIR      91  70  49 VRB6      29.99S HX  96
GORDONSVILLE*  FAIR      89  69  52 CALM      29.98F
ORANGE*          N/A     88  68  51 CALM      30.00F
LOUISA*        FAIR      91  75  59 CALM      29.98S HX 102
BUMPASS*       FAIR      87  76  69 CALM      29.98S HX  97
FARMVILLE*     FAIR      90  74  59 CALM      29.98S HX  99
CREWE*         FAIR      89  75  63 N3        29.98S HX  99
FORT PICKETT*  FAIR      87  77  72 CALM      29.98F HX  98
CHASE CITY*    FAIR      87  77  72 SW3       30.00R HX  98
CLARKSVILLE*   FAIR      88  77  70 CALM      29.99S HX 100
SOUTH HILL*    FAIR      87  76  69 W3        30.04S HX  97
LAWRENCEVILLE* FAIR      87  77  74 N3        29.98S HX  98
EMPORIA*       FAIR      88  73  62 SW6       29.99S HX  96
$$

VAZ088>098-271700-
SOUTHEAST VIRGINIA

CITY           SKY/WX    TMP DP  RH WIND       PRES   REMARKS
NORFOLK        FAIR     N/A N/A N/A NE7       29.95F
VIRGINIA BEACH PTSUNNY   95  74  50 CALM      29.94F HX 105
NORFOLK NAVAL  FAIR      90  73  57 NW6       29.97S HX  98
WEST POINT*    FAIR      87  74  63 S3        29.96F HX  95
SALUDA*        FAIR      86  78  75 N3        29.95S HX  98
NEWPORT NEWS   FAIR      88  75  65 S5        29.95F HX  97
LANGLEY AFB    MOSUNNY   87  76  69 NE7       29.95S HX  98
FORT EUSTIS    FAIR      89  76  66 VRB5      29.95S HX 100
WILLIAMSBURG*  FAIR      91  77  62 CALM      29.97S HX 105
HR EXEC AP*    FAIR      90  77  66 NW3       29.98S HX 102
FRANKLIN*      FAIR      86  73  65 CALM      29.97F
US460-WAKEFLD  FAIR      88  75  65 W3        29.97S HX  97
$$

VAZ020-022-025-037-045-271700-
WEST CENTRAL AND SOUTHWEST VIRGINIA

CITY           SKY/WX    TMP DP  RH WIND       PRES   REMARKS
STAUNTON*      FAIR      82  72  70 CALM      30.05S
WAYNESBORO*    FAIR      85  70  61 N3        30.04F
HOT SPRINGS VA FAIR      77  72  83 W10       30.18S
LYNCHBURG      FAIR      88  73  61 VRB3      30.03S HX  95
DANVILLE       FAIR      89  75  63 W6        30.00F HX  99
SOUTH BOSTON*  FAIR      90  75  61 CALM      29.99S HX 100
MARTINSVILLE   FAIR      90  72  55 CALM      30.05S HX  97
ROANOKE        FAIR      90  72  55 VRB5      30.04F HX  97
BLACKSBURG     FAIR      85  73  68 W6        30.13S
DUBLIN*        FAIR      89  70  54 W8        30.11S
MARION*        PTSUNNY   82  73  73 W7        30.16S
HILLSVILLE*    PTSUNNY   80  72  77 NW7       30.13S
RICHLANDS*     FAIR      84  73  68 SW6       30.14S
WISE*          FAIR      82  63  51 W6        30.16S
ABINGDON*      PTSUNNY   86  72  63 W9        30.12S
$$

MDZ021>025-VAZ099-100-271700-
SOUTHERN MARYLAND AND THE DELMARVA PENINSULA

CITY           SKY/WX    TMP DP  RH WIND       PRES   REMARKS
PATUXENT RIVER PTSUNNY   89  75  63 CALM      29.95R HX  99
BAY BRIDGE APT CLOUDY    84  77  79 NW5       29.95S
LEONARDTOWN    NOT AVBL
DOVER          MOSUNNY   86  82  86 E8        29.92S HX 104
GEORGETOWN     MOSUNNY   89  72  56 SW8       29.95R HX  96
EASTON         PTSUNNY   90  79  70 N5        29.98S HX 105
CAMBRIDGE      SUNNY     88  73  62 W5        29.94S HX  96
SALISBURY      MOSUNNY   89  78  70 CALM      29.94S HX 103
OCEAN CITY     PTSUNNY   86  79  79 VRB6      29.95R HX  99
WALLOPS ISLAND PTSUNNY   89  77  67 S8        29.95S HX 101
ACCOMACK*      CLOUDY    90  79  70 CALM      29.95  HX 105
$$

NCZ012>017-030>032-271700-
NORTH CENTRAL AND EASTERN NORTH CAROLINA

CITY           SKY/WX    TMP DP  RH WIND       PRES   REMARKS
ROANOKE RAPIDS FAIR      88  77  70 CALM      29.98S HX 100
RALEIGH        PTSUNNY   88  76  67 VRB3      30.00R HX  99
ELIZABETH CITY SUNNY     89  76  65 N6        29.96S HX 100
AHOSKIE*       SUNNY     86  77  75 CALM      29.98S HX  96
EDENTON*       MOSUNNY   90  74  59 NW6       29.98S HX  99
CURRITUCK*     SUNNY     88  76  68 W3        29.97S HX  98
KILL DEVIL HLS SUNNY     91  74  56 W3        29.96S HX 100
MANTEO           N/A     87  76  69 N3        29.97S HX  98
CAPE HATTERAS  CLOUDY    87  78  74 W8        29.97S HX 100
TARBORO*       FAIR      90  78  67 N3        29.99R HX 103
GOLDSBORO      MOSUNNY   91  77  63 SW8       29.97S HX 103
WASHINGTON     MOSUNNY   90  78  68 N3        29.97S HX 103
GREENVILLE     SUNNY     91  79  66 SW3       29.99S HX 107
NEW BERN       MOSUNNY   92  76  59 W3        29.99S HX 104
WILMINGTON     SUNNY     93  75  55 SW13      30.00S HX 104
$$

VAZ048-271700-
ELSEWHERE

CITY           SKY/WX    TMP DP  RH WIND       PRES   REMARKS
HARRISBURG PA  MOSUNNY   86  64  47 CALM      29.97S
BALTIMORE      CLOUDY    85  70  60 W7        29.96S
ANNAPOLIS      CLOUDY    86  73  65 N6        29.95S
ANDREWS AFB    FAIR      89  66  45 VRB6      29.96S
PHILADELPHIA   MOSUNNY   89  65  44 SE6       29.95S
GREENSBORO     MOSUNNY   91  74  57 CALM      30.02S HX 100
ROCKY MOUNT    SUNNY     90  78  68 CALM      29.99R HX 104
$$

VAZ100-271700-
MARINE

STATION/POSITION TIME  TEMP    WIND        PRES    WAVE   SWELL
                       AIR SEA DIR/SP/G            HT/PER HT/PER
                 (UTC) (F)     (DEG/KT/KT) (MB)    (FT/S) (FT/S)
BRANDYWINE LGT   1500   79     150/  6/  7   N/A
CAPE MAY NJ      1500   84 74  240/  4/  5 1013.5R
LEWES DE         1500   82 75   70/  6/  6 1013.8R
OCEAN-CITY-INLET 1500   80 79  190/  5/  6 1014.2R
WACHAPREAGUE VA  1500   87 87  200/  3/  5 1014.1R
THOMAS POINT MD  1600   83 83   20/  1/  2 1015.7S
GOOSES REEF MD   1600   85 87   10/  2/  4 1015.4R   0
COVE POINT MD    1500   83      20/  4/  5 1014.7S
SOLOMONS ISLAND  1500   87 85  270/  1/  2   N/A
BISHOPS HEAD MD  1500   84 87  250/  5/  7 1014.4R
PINEY POINT MD   1500          300/  2/  3   N/A
POTOMAC MD       1600   85 89  320/  4/  4 1013.2R   0
CAMBRIDGE MD     1500   87 87  200/  3/  4 1013.2R
LEWISETTA VA     1500   86 87   CALM  /  1 1013.9R
RAPPAHANNOCK LGT 1500          280/  5/  5 1015.0R
STINGRAY PT      1600   86 87   CALM  /  2 1014.7S   0
YORK RVR RNG VA  1500   85     250/  4/  5 1013.9S
YORKTOWN VA      1500   83 84  330/  4/  5 1014.1R
JAMESTOWN VA     1600   84 89   CALM  /  4   N/A     0
DOMINION TERM VA 1500   81     310/  7/  8 1014.7R
KIPTOPEKE VA     1500      82  290/  6/  8   N/A
CHES BAY BRIDGE  1500   81 82  290/  4/  5 1014.4R
CAPE HENRY VA    1500   82     330/  6/  7   N/A
WILLOUBY STN VA  1500   81     230/  7/  8   N/A
CAPE HENRY BUOY  1542      75                N/A     1/ 6
1ST LANDING BUOY 1600   82 82  350/  4/  6 1013.9F   1/ 4
CAPE CHARLES BUO 1556      76                N/A     1/ 6
OFFSHORE WE BUOY 1551      82                N/A     2/ 6
64NM E OF VA BCH 1550   81 81  180/  4/  6 1014.2F   3/ 6   2/ 6
DUCK PIER NC     1500   84 65  280/  6/  8 1014.0R
44100 DUCK FRF   1505      80                N/A     2/ 5
44056 DUCK FRF   1511      74                N/A     1/13
OREGON INLET NC  1500   84 84  220/  7/  9 1014.6R
HATTERAS NC      1500   83 83  260/  8/ 10 1014.6R
DIAMOND SHLS NC  1550   83 84  250/ 10/ 12 1015.0R   4/ 5   3/ 5
CAPE LOOKOUT NC  1600   85     250/ 12/ 14 1015.0F
$$




USA.gov is the U.S. government's official web portal to all federal, state and local government web resources and services.